Location: Cambridge
(43.3830°N, 80.3170°W)
Time: 14:40:53
(UTC-04:00)

Tiangong 2 - Pass Details

Date: 23 March 2019
Orbit: 378 x 390 km, 42.8° (Epoch: 24 April)

Event Time Altitude Azimuth Distance (km) Brightness Sun altitude
Exits shadow 05:56:14 20° 191° (S) 954 2.8 -15.7°
Drops below altitude 10° 05:58:07 10° 156° (SSE) 1,396 4.0 -15.4°
Sets 06:00:29 0° 140° (SE) 2,249 5.3 -15.0°
